Погода в Сунже

Россия / Республика Северная Осетия — Алания     43°03′56″N   44°48′54″E
темп.,
°C
ветер,
м/с
пор.,
м/с
влажн.,
%
обл.,
%
осадки,
мм/ч
давл.,
гПа
погр.,
м
16 мая, вс
вс1600:00+14ю3364100 0.0 101342
03:00+14ююв336852 0.0 101256
06:00+15ю33665 0.0 101180
09:00+25ссв12340 0.0 1009957
12:00+27с34320 0.0 10071939
15:00+27ссв34360 0.0 10061564
18:00+23в13560 0.0 1006130
21:00+16ю4550100 0.0 1008101
17 мая, пн
пн1700:00+16ююв474670 0.0 1007145
03:00+15ююв464490 0.0 1007113
06:00+16ююв455099 0.0 100698
09:00+27ю13260 0.0 1005972
12:00+30ссз442313 0.0 10042303
15:00+27с323527 0.0 10041323
18:00+20зсз5872100 1.4 1007456
21:00+14ю338499 4.1 100856
18 мая, вт
вт1800:00+14ююз227956 0.0 100729
03:00+13юз2384100 0.4 100988
06:00+13з139799 2.2 1010314
09:00+13зсз2594100 2.8 1011522
12:00+16сз237496 0.3 1011881
15:00+15с2287100 3.0 1012486
18:00+15сз118972 2.5 1013148
21:00+12ююв21925 2.6 101414
19 мая, ср
ср1900:00+11ююв228683 0.0 101419
03:00+10ю22820 0.0 101421
06:00+12ю11745 0.0 101437
09:00+19ссв2256100 0.0 1012664
12:00+21ссв425058 0.0 10131762
15:00+18ссв247099 0.3 1015378
18:00+16ююз117499 0.1 101619
21:00+15зсз128596 0.1 101855
20 мая, чт
чт2000:00+12юв019740 0.1 101817
03:00+12в119441 0.1 101877
06:00+12всв019016 0.0 1019139
09:00+18с22657 0.0 1016738
12:00+22ссв43540 0.0 10141090
15:00+23св43510 0.0 10131133
18:00+20всв34640 0.0 1013418
21:00+15ююв227410 0.0 101331